Theta_e
349 350 351 351 350 350 349 347 344 344 343 344 345 345 342 343 342 343 343 340 342 344 345 346 345 348 345 343 343 346 346 347 347 345 344 344 345 345 346 341 344 348 346
350 350 351 352 351 350 348 344 342 341 343 343 347 344 345 344 344 343 341 343 342 343 344 346 346 349 348 345 345 343 346 345 347 347 346 345 345 344 342 344 343 342 343
352 351 351 352 352 349 345 342 344 343 342 346 346 345 343 344 342 343 343 343 341 345 339 342 344 343 342 343 343 345 344 347 347 345 345 345 344 345 343 343 343 344 346
351 353 352 352 352 350 347 342 343 344 343 346 343 344 345 346 342 342 342 344 342 340 345 347 347 346 342 345 345 345 346 345 345 347 345 345 345 344 343 343 345 346 346
351 352 352 352 351 350 349 346 342 344 344 345 345 344 341 346 345 342 342 342 342 341 341 340 338 339 341 343 344 346 345 344 345 343 344 345 344 344 345 343 341 340 341
351 349 352 352 351 351 350 349 343 344 344 344 346 345 345 346 345 345 342 343 343 342 341 342 344 342 342 344 345 344 344 343 345 346 344 345 346 344 342 342 342 342 341
351 352 350 351 351 350 350 349 348 343 344 344 346 345 345 345 345 345 342 342 343 343 344 344 344 345 344 346 346 343 342 341 343 343 344 343 345 343 343 342 342 339 339
340 349 353 350 351 351 350 349 349 346 342 343 345 345 345 345 345 343 342 344 343 343 342 342 344 343 347 345 344 344 342 341 342 346 344 342 342 340 341 343 343 342 340
334 339 351 351 351 350 351 351 350 350 346 344 343 343 345 345 346 345 343 342 341 340 341 341 345 345 346 346 343 341 341 342 344 342 340 339 332 333 335 340 340 341 340
332 333 336 346 350 349 351 350 349 349 349 346 344 343 344 345 345 345 344 343 342 341 339 341 345 343 344 342 341 340 341 340 340 339 335 334 337 336 331 333 336 340 340
334 331 330 332 341 350 350 350 350 350 350 350 348 344 344 344 342 344 344 342 341 341 340 339 340 343 342 341 342 342 341 338 341 341 341 341 332 327 326 325 331 338 338
333 333 331 328 332 343 350 350 350 350 350 350 350 348 345 344 342 340 342 342 340 340 341 341 341 342 341 340 344 342 343 341 341 342 342 332 331 331 329 329 329 332 336
330 333 332 329 327 332 336 346 348 347 350 348 348 350 348 345 343 340 341 342 343 343 343 342 342 341 341 340 343 341 342 345 345 343 332 332 333 333 333 333 333 333 333
331 333 332 331 327 331 334 335 344 346 346 348 348 347 350 349 345 342 339 338 340 343 343 344 342 337 337 342 342 340 339 340 338 332 334 334 334 333 334 335 332 332 332
329 333 332 331 333 332 335 335 344 343 334 337 348 347 346 346 347 344 340 338 340 340 341 343 337 337 339 341 342 336 336 332 335 336 336 336 335 334 333 333 333 332 332
324 330 331 329 332 334 336 336 341 343 339 337 336 346 345 346 347 345 344 340 342 341 343 340 339 339 339 340 339 335 333 333 335 335 337 337 336 334 332 332 332 332 331
322 324 330 330 329 334 337 336 344 343 343 342 343 343 344 344 340 342 338 343 340 342 344 341 339 338 338 339 333 336 336 335 334 335 335 335 334 329 328 329 329 330 330
323 323 324 330 331 334 337 337 338 343 342 342 343 341 338 333 331 332 332 341 341 343 343 342 338 336 336 333 335 336 337 335 335 334 334 334 330 328 328 328 328 328 328
322 323 323 326 331 335 336 337 336 340 338 337 338 337 331 328 330 330 334 341 344 343 343 343 336 334 338 337 337 337 334 334 335 334 333 331 329 329 329 327 327 326 324
322 322 323 326 331 333 337 335 334 337 339 340 338 333 331 328 335 337 341 342 343 342 341 342 338 338 339 338 335 335 336 335 335 333 331 329 329 329 328 325 325 323 323
321 322 324 331 332 334 330 329 330 333 336 338 338 330 330 329 335 338 340 342 341 340 341 343 341 340 338 333 334 335 333 333 332 328 326 326 326 326 326 324 323 323 323
328 325 327 330 332 333 330 332 333 333 332 331 335 335 330 330 336 340 342 342 341 341 340 342 341 340 334 334 333 333 332 329 328 325 323 324 324 324 323 323 323 322 322
332 332 332 331 333 333 331 337 337 338 338 336 334 335 330 328 332 338 338 341 341 340 342 342 339 334 333 332 333 332 328 325 322 323 324 324 323 322 322 322 323 323 323
333 333 333 333 336 332 331 335 335 337 336 333 333 333 333 330 330 330 331 335 341 342 342 338 335 331 331 333 332 328 326 322 319 319 320 320 321 322 322 322 322 319 319
335 335 333 335 336 332 331 332 337 336 334 335 335 332 330 330 329 330 330 339 340 340 338 336 331 330 333 332 329 327 326 326 324 319 318 319 321 321 321 321 320 320 321
334 335 335 335 334 330 330 335 336 333 334 336 337 336 333 333 330 334 332 338 340 339 335 330 331 333 332 329 327 327 326 326 326 325 318 319 320 319 320 320 321 321 322
Wind_Speed
34 32 25 21 21 21 18 17 15 17 20 22 22 21 20 17 15 18 19 18 17 15 17 16 13 12 12 11 6 8 8 8 10 11 10 9 9 7 4 7 15 16 16
33 34 30 24 23 23 18 17 14 16 20 22 23 24 23 21 19 20 22 21 19 18 16 18 15 13 10 13 11 10 11 12 12 13 13 12 12 11 12 13 13 18 19
30 35 35 29 27 25 19 18 22 16 22 26 23 24 23 22 22 22 24 22 21 16 19 18 16 15 13 13 15 15 13 13 14 16 19 19 19 18 17 17 16 16 17
26 33 36 33 27 26 22 19 20 25 24 28 24 25 24 24 23 24 25 23 22 21 20 18 18 17 16 16 17 18 18 18 19 20 21 20 19 19 20 18 19 19 20
19 29 32 36 28 25 24 22 20 25 26 29 28 23 27 27 23 24 25 27 25 22 21 21 20 20 20 18 18 20 19 21 21 23 21 20 19 19 20 22 23 23 24
22 25 31 36 32 27 24 24 23 24 27 29 30 24 27 28 25 23 27 28 24 24 23 22 21 20 17 17 17 17 17 19 20 20 21 21 21 19 17 17 18 18 19
16 31 34 30 31 29 26 24 26 25 26 31 32 27 26 23 24 27 26 28 27 27 24 23 22 20 19 19 19 19 21 22 22 22 21 19 19 17 17 16 16 17 18
17 20 23 31 33 31 30 27 27 27 27 30 34 33 30 27 24 24 24 25 26 27 25 24 24 21 19 19 21 22 21 19 20 20 20 19 19 18 19 19 20 19 17
21 18 18 21 28 34 36 33 28 29 30 30 29 32 32 29 26 25 26 28 29 29 28 26 26 26 23 21 23 24 23 21 17 17 18 18 16 15 17 19 19 19 19
23 21 20 18 22 32 35 34 32 29 32 31 32 30 30 29 26 25 26 28 30 29 28 27 25 24 24 23 24 22 21 18 15 15 14 14 18 21 23 22 20 21 21
19 21 21 22 21 24 30 31 32 35 31 35 35 34 32 31 29 26 25 27 29 29 29 29 28 26 26 24 21 21 19 14 14 15 16 19 22 23 22 22 22 22 22
19 19 22 22 21 20 23 31 30 35 35 33 37 37 35 33 31 29 28 29 28 28 28 27 26 25 24 22 23 21 18 18 18 19 19 20 18 17 14 14 14 15 16
24 18 21 22 22 21 20 25 30 31 35 35 34 39 39 36 33 31 29 29 30 31 30 26 24 25 22 20 21 20 20 21 20 19 19 14 13 12 10 10 11 13 15
24 20 19 23 24 23 23 19 24 30 25 34 39 39 39 38 34 31 31 30 31 31 30 27 25 23 19 19 17 17 17 18 18 17 15 14 14 16 17 16 16 17 20
23 23 20 19 22 23 24 19 22 31 38 37 37 36 35 32 34 34 31 32 32 31 28 28 26 26 24 21 19 17 16 16 16 16 18 19 19 18 19 19 19 20 21
26 23 22 22 21 21 20 22 20 19 23 25 41 40 33 32 31 27 30 28 30 30 29 31 29 28 27 23 21 18 17 18 17 17 21 22 21 21 20 21 21 19 17
26 24 22 22 23 21 20 16 15 12 14 24 35 35 25 19 27 16 30 32 35 32 31 30 30 29 27 23 20 19 18 17 17 16 16 19 20 21 15 15 15 16 16
26 24 24 22 24 22 21 19 16 20 21 23 26 29 28 28 25 39 53 47 40 38 33 30 27 24 23 20 19 19 18 17 16 16 17 19 19 15 14 14 14 14 13
29 28 25 24 25 24 24 22 20 20 16 11 13 21 19 19 21 29 27 35 40 40 36 31 26 23 20 18 18 18 18 18 17 17 19 19 16 14 13 13 14 10 11
35 29 25 24 25 25 27 28 27 30 31 28 21 23 27 22 16 16 26 33 37 35 31 31 26 24 22 20 18 17 17 16 18 20 20 16 15 15 14 11 10 11 11
22 23 23 23 26 24 25 25 28 31 34 35 29 27 32 19 22 23 26 35 34 33 31 30 27 25 22 20 19 17 16 17 19 17 15 15 15 14 12 12 12 11 9
14 19 22 25 25 22 20 16 16 19 22 28 34 32 29 21 20 24 30 36 34 37 31 29 28 26 22 20 18 15 15 15 15 15 14 13 12 12 11 12 11 10 8
17 20 23 24 23 21 19 15 15 20 21 21 23 32 31 29 26 26 23 28 30 33 32 29 28 24 21 18 15 14 12 11 11 12 12 12 11 10 10 10 11 10 11
21 21 21 20 21 22 22 19 20 21 19 16 17 25 35 33 28 26 21 26 26 32 31 28 25 22 20 16 15 13 12 10 10 10 11 11 11 10 9 10 13 13 11
13 14 18 20 21 24 24 20 22 18 12 10 17 18 22 28 28 27 27 28 27 30 28 26 23 21 17 14 15 15 13 13 11 9 11 11 12 14 14 13 13 12 10
13 15 18 15 17 18 21 18 14 10 12 15 10 15 26 31 31 26 29 24 29 28 26 24 23 19 15 14 15 13 15 14 13 10 12 12 15 16 15 14 13 10 7
Wind_Direction
241 243 245 247 254 249 248 260 246 232 221 217 206 208 204 206 215 219 210 210 217 219 212 215 218 234 241 245 259 250 262 255 271 281 286 280 291 304 279 271 262 250 265
247 245 247 248 251 248 247 243 226 239 230 218 213 211 213 215 218 218 209 218 220 218 220 211 215 230 239 245 254 261 256 259 263 278 276 277 280 287 287 281 272 263 269
255 244 245 248 248 245 248 244 224 228 225 221 215 218 219 219 217 219 217 217 219 222 220 232 230 237 238 250 254 260 259 251 260 269 278 285 289 292 291 286 284 279 274
258 244 245 250 251 246 244 244 235 226 222 219 224 218 229 223 222 222 221 220 226 232 232 238 240 246 251 255 257 261 260 261 266 269 276 282 284 285 285 287 285 281 276
256 253 248 253 253 250 242 245 236 229 227 223 221 238 224 224 225 230 224 223 227 234 237 243 250 254 255 260 267 261 264 264 267 270 276 282 283 285 288 288 287 288 288
253 254 253 253 253 255 248 240 243 234 230 222 224 233 226 223 230 235 232 233 232 237 240 249 257 258 261 266 262 265 259 272 272 274 277 281 287 289 288 287 287 293 301
291 252 259 261 259 258 256 246 238 241 233 226 227 233 229 232 242 239 242 239 236 239 241 251 253 256 264 265 264 270 273 273 271 273 276 282 284 287 281 278 284 291 297
315 299 268 257 255 258 255 247 239 236 234 232 231 234 235 236 242 239 239 241 244 244 245 251 251 252 260 267 271 274 273 273 273 273 280 279 278 281 277 278 274 280 286
317 324 300 276 260 254 256 253 245 237 234 233 234 232 233 238 238 239 239 240 242 245 247 251 252 253 256 266 269 269 267 270 270 266 271 275 277 285 286 283 282 276 277
316 315 320 308 271 259 255 252 252 246 244 240 237 236 234 239 237 237 238 241 242 244 246 248 252 254 258 260 265 261 256 266 262 261 266 274 283 285 283 276 273 269 275
299 311 311 312 305 270 258 251 249 253 250 241 241 239 237 234 233 234 238 239 242 244 247 249 254 257 264 255 253 250 251 250 250 259 268 281 286 286 279 271 266 267 274
285 298 307 301 304 305 264 260 253 251 251 248 242 240 240 239 236 233 234 237 240 245 248 251 254 252 253 254 249 246 249 253 260 267 274 287 288 298 293 278 278 269 269
279 287 302 300 298 301 302 273 262 258 250 248 246 240 240 239 238 236 234 235 240 243 248 251 249 248 244 248 246 247 251 253 258 263 276 272 285 292 291 285 284 283 283
277 274 294 303 303 304 306 295 265 254 263 259 248 243 237 238 239 236 232 230 232 238 241 243 243 234 240 234 237 245 246 248 256 260 258 268 281 286 280 278 276 278 286
282 271 275 292 305 306 310 297 258 262 248 303 253 244 244 243 243 244 235 229 230 234 238 238 232 237 234 232 238 242 246 245 246 254 264 269 275 282 278 274 272 280 286
279 276 269 278 290 304 309 304 303 264 255 273 273 248 228 231 237 236 252 250 234 237 235 231 237 236 231 233 238 238 242 246 249 263 264 264 269 276 275 274 274 277 278
275 272 271 275 282 293 296 293 248 235 228 240 236 237 260 250 288 234 291 265 247 232 233 232 234 234 231 233 231 233 239 255 258 258 266 263 269 281 263 263 268 275 279
269 270 270 273 277 278 281 285 266 248 240 236 222 245 240 249 268 263 272 247 249 228 224 226 232 227 221 222 225 234 243 252 250 256 259 262 275 269 261 262 267 272 275
269 265 263 266 272 271 276 274 259 240 215 246 249 222 224 254 277 237 230 232 236 224 219 220 224 215 212 219 229 238 243 244 249 253 256 269 265 254 254 271 271 264 270
260 254 253 263 264 265 274 267 247 241 248 255 260 250 256 248 216 197 210 216 219 220 220 219 220 219 222 228 229 230 239 240 246 253 263 257 249 250 252 266 257 261 267
235 231 244 257 258 266 274 264 256 246 249 252 256 261 249 254 235 213 225 214 216 217 221 224 225 224 227 225 226 230 235 242 250 247 246 245 250 248 229 234 242 249 258
245 244 248 254 254 257 272 264 266 263 266 262 253 251 245 252 225 226 216 216 223 221 224 223 221 223 224 222 226 230 238 242 242 246 238 231 222 215 220 232 231 233 232
252 254 248 243 245 250 242 257 282 281 278 273 262 247 245 236 238 224 221 215 222 217 210 213 219 219 214 213 218 234 232 231 227 224 222 215 206 208 213 216 219 219 208
259 250 245 240 243 239 238 261 283 290 283 273 276 254 236 234 239 233 242 233 210 203 202 211 213 209 207 210 224 220 208 195 190 194 196 199 201 198 192 177 158 153 157
272 245 236 246 236 235 245 267 282 273 246 276 288 248 231 229 220 226 238 219 197 200 205 210 207 198 203 218 216 204 204 198 191 191 192 193 186 176 168 159 157 157 159
295 262 250 238 225 229 248 275 270 261 246 278 248 241 227 235 234 230 209 208 194 206 209 198 189 192 199 201 192 199 202 206 201 198 196 192 186 178 172 170 175 179 190